User: anonymous   Login
Location: Unspecified
(0.0000°N, 0.0000°E)
Time: 09:22:10
(UTC+00:00)
Language:

GOES 2 - Orbit

View from above orbital plane
View from above orbital plane
View from above satellite
View from above satellite

Ground track
Ground track

The orbit data is extracted from the following two-line orbital elements,

1 10061U 77048A   17083.97826164 -.00000274 +00000-0 +00000-0 0  9990
2 10061 013.3924 328.5194 0017058 318.1172 207.3203 00.99399638090000
Epoch (UTC): 24 March 2017 23:28:41
Eccentricity: 0.0017058
inclination: 13.3924°
perigee height: 35960 km
apogee height: 36105 km
right ascension of ascending node: 328.5194°
argument of perigee: 318.1172°
revolutions per day: 0.99399638
mean anomaly at epoch: 207.3203°
orbit number at epoch: 9000

The dashed part of the orbit path shows where the satellite is in the earth's shadow,  

DLR